Kodiak, AK

6:10 AM AKDT on September 19, 2017 (GMT -0800)
Kodiak

Weather History for PADQ - January, 2012

Change the Weather History Date:

Monday, January 16, 2012

  Actual Average Record
Temperature  
Mean Temperature 26 °F 30 °F  
Max Temperature 27 °F 35 °F 47 °F (1929)
Min Temperature 24 °F 26 °F 5 °F (1972)
Degree Days  
Heating Degree Days 39 35  
Month to date heating degree days 648 548  
Since 1 July heating degree days 4669 4391  
Cooling Degree Days 0 0  
Month to date cooling degree days 0 0  
Year to date cooling degree days 0 0  
Moisture  
Dew Point 10 °F    
Average Humidity 0    
Maximum Humidity 0    
Minimum Humidity 0    
Precipitation  
Precipitation 0.00 in 0.28 in 2.03 in (1994)
Month to date precipitation 3.25 4.43  
Year to date precipitation 3.25 4.43  
Snow  
Snow 0.00 in 0.40 in 8.00 in (1918)
Month to date snowfall 27.2 6.1  
Since 1 July snowfall 63.7 27.4  
Snow Depth 10.00 in    
Sea Level Pressure  
Sea Level Pressure 30.60 in    
Wind  
Wind Speed 16 mph (WNW)    
Max Wind Speed 28 mph    
Max Gust Speed 33 mph    
Visibility 10 miles    
Events      
T = Trace of Precipitation, MM = Missing Value Source: NWS Daily Summary

Daily Weather History Graph

Daily Weather History Graph

Search for Another Location

Airport or City:

Trip Planner

Search our weather history database for the weather conditions in past years. The results will help you decide how hot, cold, wet, or windy it might be!

Date:

Astronomy

Jan. 16, 2012 Rise Set
Actual Time 9:40 AM AKST 4:59 PM AKST
Civil Twilight 8:53 AM AKST 5:46 PM AKST
Nautical Twilight 8:03 AM AKST 6:36 PM AKST
Astronomical Twilight 7:16 AM AKST 7:23 PM AKST
Moon 2:38 AM AKST (1/16) 11:38 AM AKST (1/16)
Length of Visible Light 8h 53m
Length of Day
7h 18m
Last Quarter, 45% of the Moon is Illuminated
Jan 16
Last Quarter
Jan 22
New
Jan 30
First Quarter
Feb 7
Full
Feb 14
Last Quarter

Hourly Weather History & Observations

Time (AKST) Temp. Windchill Dew Point Humidity Pressure Visibility Wind Dir Wind Speed Gust Speed Precip Events Conditions
12:53 AM 25.0 °F 10.6 °F 15.1 °F 66% 30.69 in 10.0 mi WNW 20.7 mph - N/A   Clear
1:53 AM 26.1 °F 12.7 °F 12.0 °F 55% 30.67 in 10.0 mi WNW 18.4 mph 25.3 mph N/A   Clear
3:53 AM 26.1 °F 13.6 °F 8.1 °F 47% 30.65 in 10.0 mi WNW 16.1 mph 27.6 mph N/A   Clear
4:53 AM 26.1 °F 16.8 °F 9.0 °F 49% 30.65 in 10.0 mi WNW 9.2 mph - N/A   Clear
5:53 AM 25.0 °F 11.3 °F 10.0 °F 53% 30.64 in 10.0 mi WNW 18.4 mph - N/A   Clear
6:53 AM 25.0 °F 11.3 °F 10.0 °F 53% 30.63 in 10.0 mi WNW 18.4 mph 25.3 mph N/A   Clear
7:53 AM 25.0 °F 13.1 °F 9.0 °F 51% 30.65 in 10.0 mi NW 13.8 mph 20.7 mph N/A   Clear
8:53 AM 24.1 °F 14.4 °F 8.1 °F 51% 30.64 in 10.0 mi West 9.2 mph 18.4 mph N/A   Partly Cloudy
9:53 AM 24.1 °F 15.2 °F 8.1 °F 51% 30.65 in 10.0 mi WNW 8.1 mph - N/A   Partly Cloudy
10:53 AM 25.0 °F 11.3 °F 10.0 °F 53% 30.63 in 10.0 mi WNW 18.4 mph - N/A   Partly Cloudy
11:53 AM 25.0 °F 8.9 °F 10.0 °F 53% 30.62 in 10.0 mi WNW 26.5 mph 32.2 mph N/A   Partly Cloudy
12:53 PM 26.1 °F 14.0 °F 10.9 °F 53% 30.62 in 10.0 mi WNW 15.0 mph 24.2 mph N/A   Partly Cloudy
1:53 PM 26.1 °F 12.7 °F 10.9 °F 53% 30.61 in 10.0 mi WNW 18.4 mph 26.5 mph N/A   Partly Cloudy
2:53 PM 27.0 °F 15.6 °F 10.0 °F 49% 30.60 in 10.0 mi WNW 13.8 mph - N/A   Partly Cloudy
3:53 PM 26.1 °F 12.0 °F 10.9 °F 53% 30.57 in 10.0 mi WNW 20.7 mph 28.8 mph N/A   Partly Cloudy
4:53 PM 25.0 °F 11.7 °F 10.0 °F 53% 30.57 in 10.0 mi WNW 17.3 mph 27.6 mph N/A   Partly Cloudy
5:53 PM 25.0 °F 15.5 °F 8.1 °F 49% 30.57 in 10.0 mi NW 9.2 mph - N/A   Partly Cloudy
6:53 PM 24.1 °F 13.7 °F 9.0 °F 53% 30.56 in 10.0 mi WNW 10.4 mph - N/A   Partly Cloudy
7:53 PM 23.0 °F 12.4 °F 10.0 °F 58% 30.55 in 10.0 mi WNW 10.4 mph - N/A   Partly Cloudy
8:53 PM 21.9 °F 11.7 °F 10.9 °F 63% 30.55 in 10.0 mi NW 9.2 mph - N/A   Partly Cloudy
9:53 PM 21.9 °F 11.0 °F 10.9 °F 63% 30.54 in 10.0 mi NW 10.4 mph - N/A   Partly Cloudy
10:53 PM 21.9 °F 9.2 °F 10.9 °F 63% 30.53 in 10.0 mi WNW 13.8 mph - N/A   Partly Cloudy
11:53 PM 21.9 °F 9.2 °F 12.0 °F 66% 30.51 in 10.0 mi WNW 13.8 mph 21.9 mph N/A   Partly Cloudy